FW9898 Weather Reports


time (UTC)temp
F
wind
direction
speed
knots
gust
knots
rain 1hr
in
rain 24hr
in
rain mn
in
humidity
%
barometer
mb
20260503215242 66 183 0.9 0.9 0.00 0.00 0.00 61 1017.5
20260503214740 66 215 1.7 2.6 0.00 0.00 0.00 60 1017.5
20260503214237 66 197 0.0 0.9 0.00 0.00 0.00 61 1017.6
20260503213735 66 188 2.6 2.6 0.00 0.00 0.00 61 1017.5
20260503213232 66 161 0.9 0.9 0.00 0.00 0.00 60 1017.6
20260503212728 66 176 2.6 3.5 0.00 0.00 0.00 60 1017.7
20260503212226 66 182 2.6 2.6 0.00 0.00 0.00 61 1017.7
20260503211724 66 184 1.7 2.6 0.00 0.00 0.00 60 1017.6
20260503211219 66 184 1.7 2.6 0.00 0.00 0.00 60 1018.1
20260503210715 65 157 0.0 0.9 0.00 0.00 0.00 61 1017.9
20260503210213 65 159 2.6 2.6 0.00 0.00 0.00 60 1017.8
20260503205708 66 163 2.6 2.6 0.00 0.00 0.00 59 1017.8
20260503205204 66 159 3.5 4.3 0.00 0.00 0.00 58 1018.2
20260503204701 66 159 1.7 2.6 0.00 0.00 0.00 59 1018.0
20260503204159 67 181 2.6 3.5 0.00 0.00 0.00 57 1018.1
20260503203655 67 189 2.6 2.6 0.00 0.00 0.00 59 1018.1
20260503203154 67 176 1.7 2.6 0.00 0.00 0.00 59 1018.1
20260503202650 67 176 0.9 0.9 0.00 0.00 0.00 58 1018.2
20260503202148 67 213 0.0 0.0 0.00 0.00 0.00 59 1018.2
20260503201646 67 184 2.6 3.5 0.00 0.00 0.00 57 1018.2
20260503201143 67 182 2.6 2.6 0.00 0.00 0.00 57 1018.2
20260503200639 67 182 0.0 0.9 0.00 0.00 0.00 57 1018.3
20260503200136 67 178 0.9 0.9 0.00 0.00 0.00 57 1018.3
20260503195633 68 196 2.6 3.5 0.00 0.00 0.00 56 1018.3
20260503195130 67 182 2.6 2.6 0.00 0.00 0.00 56 1018.4
20260503194627 68 193 2.6 2.6 0.00 0.00 0.00 56 1018.4
20260503194122 68 178 2.6 2.6 0.00 0.00 0.00 56 1018.6
20260503193620 67 178 0.9 0.9 0.00 0.00 0.00 58 1018.7
20260503193114 67 178 2.6 2.6 0.00 0.00 0.00 57 1018.7
20260503192610 68 219 0.9 0.9 0.00 0.00 0.00 55 1018.8
20260503192106 67 189 1.7 2.6 0.00 0.00 0.00 56 1018.8
20260503191603 68 214 1.7 2.6 0.00 0.00 0.00 55 1019.0
20260503191100 68 213 0.9 0.9 0.00 0.00 0.00 55 1019.3
20260503190557 67 220 2.6 2.6 0.00 0.00 0.00 56 1019.3
20260503190054 68 183 0.0 0.9 0.00 0.00 0.00 56 1019.3
20260503185551 67 163 0.9 0.9 0.00 0.00 0.00 57 1019.1
20260503185050 68 175 2.6 3.5 0.00 0.00 0.00 55 1019.3
20260503184546 67 175 2.6 3.5 0.00 0.00 0.00 57 1019.2
20260503184043 67 165 2.6 2.6 0.00 0.00 0.00 56 1019.4
20260503183540 68 176 0.9 0.9 0.00 0.00 0.00 57 1019.5
20260503183037 68 176 0.0 0.0 0.00 0.00 0.00 55 1019.5
20260503182536 67 176 2.6 3.5 0.00 0.00 0.00 55 1019.5
20260503182033 67 176 1.7 2.6 0.00 0.00 0.00 56 1019.9
20260503181530 67 210 0.9 2.6 0.00 0.00 0.00 58 1019.6
20260503181026 67 210 1.7 2.6 0.00 0.00 0.00 56 1019.7
20260503180524 67 248 1.7 2.6 0.00 0.00 0.00 57 1019.5
20260503180021 68 11 2.6 2.6 0.00 0.00 0.00 57 1019.6
20260503175518 69 198 1.7 2.6 0.00 0.00 0.00 54 1019.7
20260503175015 70 239 0.9 0.9 0.00 0.00 0.00 53 1019.7
20260503174512 69 241 1.7 2.6 0.00 0.00 0.00 54 1019.7
20260503174008 68 230 2.6 3.5 0.00 0.00 0.00 50 1019.6
20260503173503 68 331 1.7 2.6 0.00 0.00 0.00 51 1019.9
20260503173000 68 329 0.9 0.9 0.00 0.00 0.00 52 1019.8
20260503172458 68 203 1.7 2.6 0.00 0.00 0.00 52 1020.0
20260503171954 67 203 0.9 0.9 0.00 0.00 0.00 51 1020.1
20260503171451 68 230 1.7 2.6 0.00 0.00 0.00 52 1020.1
20260503170949 68 245 0.9 0.9 0.00 0.00 0.00 53 1020.1
20260503170445 68 240 2.6 2.6 0.00 0.00 0.00 49 1020.1
20260503150837 62 345 1.7 2.6 0.00 0.00 0.00 63 1020.4
20260503150333 62 345 1.7 2.6 0.00 0.00 0.00 63 1020.4
20260503140257 60 316 2.6 3.5 0.00 0.00 0.00 73 1020.1
20260503131227 57 338 0.9 0.9 0.00 0.00 0.00 88 1020.0
20260503130725 57 326 1.7 2.6 0.00 0.00 0.00 90 1020.0
20260503130221 57 299 1.7 2.6 0.00 0.00 0.00 92 1020.0
20260503120147 52 349 0.0 0.9 0.00 0.00 0.00 99 1019.6
20260503110615 49 353 0.0 0.0 0.00 0.00 0.00 99 1018.8
20260503110112 50 353 0.0 0.0 0.00 0.00 0.00 99 1018.9
20260503090502 50 353 0.0 0.9 0.00 0.00 0.00 99 1017.2
20260503081428 51 352 0.9 0.9 0.00 0.00 0.00 99 1016.8
20260503080926 51 352 0.0 0.9 0.00 0.00 0.00 99 1017.1
20260503080422 51 352 0.0 0.9 0.00 0.00 0.00 99 1016.9
20260503072858 51 352 0.9 0.9 0.00 0.00 0.00 99 1016.6
20260503072355 51 352 0.0 0.0 0.00 0.00 0.00 99 1016.8
20260503071852 51 352 0.0 0.9 0.00 0.00 0.00 99 1016.6
20260503071349 51 352 0.0 0.9 0.00 0.00 0.00 99 1016.7
20260503070845 51 352 0.9 0.9 0.00 0.00 0.00 99 1016.7
20260503070343 51 352 0.9 0.9 0.00 0.00 0.00 99 1016.5
20260503060303 52 351 0.9 0.9 0.00 0.00 0.00 99 1016.5
20260503054749 52 351 0.9 0.9 0.00 0.00 0.00 99 1016.3
20260503054246 53 351 0.9 0.9 0.00 0.00 0.00 99 1016.4
20260503053744 53 351 0.0 0.0 0.00 0.00 0.00 99 1016.3
20260503053243 53 351 0.0 0.9 0.00 0.00 0.00 99 1016.3
20260503052738 53 351 1.7 2.6 0.00 0.00 0.00 99 1016.3
20260503052236 53 350 0.9 0.9 0.00 0.00 0.00 99 1016.4
20260503051730 53 350 0.9 0.9 0.00 0.00 0.00 99 1016.2
20260503051228 53 350 0.9 0.9 0.00 0.00 0.00 99 1015.9
20260503050724 53 350 0.9 0.9 0.00 0.00 0.00 99 1016.1
20260503050221 53 350 0.9 0.9 0.00 0.00 0.00 99 1015.8
20260503045719 53 350 0.0 0.0 0.00 0.00 0.00 99 1016.0
20260503045216 53 350 0.9 0.9 0.00 0.00 0.00 99 1016.1
20260503044713 53 350 0.9 0.9 0.00 0.00 0.00 99 1016.2
20260503044210 53 350 0.9 0.9 0.00 0.00 0.00 99 1015.8
20260503043706 53 350 0.0 0.0 0.00 0.00 0.00 99 1015.8
20260503043204 53 350 1.7 2.6 0.00 0.00 0.00 99 1015.8
20260503042700 54 350 0.0 0.0 0.00 0.00 0.00 99 1015.8
20260503042156 53 350 0.0 0.0 0.00 0.00 0.00 99 1015.6
20260503041652 53 350 1.7 2.6 0.00 0.00 0.00 99 1015.6
20260503041150 53 350 0.9 0.9 0.00 0.00 0.00 99 1015.5
20260503040648 53 350 0.9 0.9 0.00 0.00 0.00 99 1015.6
20260503040145 54 342 2.6 3.5 0.00 0.00 0.00 99 1015.4
20260503035642 54 313 0.9 0.9 0.00 1.33 1.33 99 1015.4
20260503035139 54 312 0.0 0.0 0.00 1.33 1.33 99 1015.4
20260503034637 54 312 0.9 0.9 0.00 1.33 1.33 99 1015.4
20260503034134 54 312 0.0 0.9 0.00 1.33 1.33 99 1015.3
20260503033630 54 312 0.9 0.9 0.00 1.33 1.33 99 1015.1
20260503033128 54 312 0.0 0.9 0.00 1.33 1.33 99 1015.1
20260503032626 54 312 0.9 0.9 0.00 1.33 1.33 99 1014.8
20260503032125 54 321 1.7 2.6 0.00 1.33 1.33 99 1015.1
20260503031622 54 311 0.9 0.9 0.00 1.33 1.33 99 1014.9
20260503031119 54 285 1.7 2.6 0.00 1.33 1.33 99 1014.8
20260503030615 55 273 1.7 2.6 0.00 1.33 1.33 99 1014.7
20260503030112 54 271 0.9 0.9 0.00 1.33 1.33 99 1014.5
20260503025609 54 298 0.9 0.9 0.00 1.33 1.33 99 1014.5
20260503025107 55 299 0.9 0.9 0.00 1.33 1.33 99 1014.5
20260503024603 55 298 0.0 0.9 0.00 1.33 1.33 99 1014.3
20260503024100 55 291 0.9 0.9 0.00 1.33 1.33 99 1014.6
20260503023557 55 304 0.9 0.9 0.00 1.33 1.33 99 1014.4
20260503023054 55 304 0.9 0.9 0.00 1.33 1.33 99 1014.3
20260503022550 55 305 0.9 0.9 0.00 1.33 1.33 99 1014.2
20260503022045 55 312 0.9 0.9 0.00 1.33 1.33 99 1014.2
20260503021542 55 312 0.0 0.9 0.00 1.33 1.33 99 1014.0
20260503021039 55 312 0.0 0.0 0.00 1.33 1.33 99 1013.9
20260503020536 55 313 0.0 0.0 0.00 1.33 1.33 99 1013.8
20260503020033 55 313 0.9 0.9 0.00 1.33 1.33 99 1013.8
20260503015529 55 313 0.9 0.9 0.00 1.33 1.33 99 1013.7
20260503015027 55 313 0.9 0.9 0.00 1.33 1.33 99 1013.7
20260503014522 54 313 0.0 0.9 0.00 1.33 1.33 99 1013.4
20260503014021 55 286 0.0 0.0 0.00 1.33 1.33 99 1013.5
20260503013518 55 286 0.0 0.9 0.00 1.33 1.33 99 1013.3
20260503013015 55 286 0.9 0.9 0.00 1.33 1.33 99 1013.5
20260503012513 55 286 0.0 0.0 0.00 1.33 1.33 99 1013.4
20260503012009 55 286 0.0 0.0 0.00 1.33 1.33 99 1013.5
20260503011506 55 286 0.0 0.0 0.00 1.33 1.33 99 1013.5
20260503011003 55 286 0.9 0.9 0.00 1.33 1.33 99 1013.6
20260503010459 54 286 0.0 0.9 0.00 1.33 1.33 99 1013.7
20260503005957 55 324 2.6 3.5 0.00 1.33 1.33 99 1013.6
20260503005454 55 328 0.9 0.9 0.00 1.33 1.33 99 1013.5
20260503004950 55 328 2.6 3.5 0.00 1.33 1.33 99 1013.3
20260503004447 55 318 0.9 0.9 0.00 1.33 1.33 99 1013.1
20260503003945 55 318 0.0 0.9 0.00 1.33 1.33 99 1013.2
20260503003441 55 322 2.6 2.6 0.00 1.33 1.33 99 1012.8
20260503002938 55 322 1.7 2.6 0.00 1.33 1.33 99 1012.6
20260503002435 55 321 0.9 0.9 0.00 1.33 1.33 99 1012.8
20260503001932 55 336 0.9 0.9 0.00 1.33 1.33 99 1012.5
20260503001428 55 336 0.0 0.9 0.00 1.33 1.33 99 1012.5
20260503000926 55 344 1.7 2.6 0.00 1.33 1.33 99 1012.8
20260503000423 55 337 0.9 0.9 0.00 1.33 1.33 99 1012.7
20260502235920 55 337 0.9 0.9 0.00 1.33 1.33 99 1012.8
20260502235417 55 338 0.9 0.9 0.00 1.33 1.33 99 1012.4
20260502234914 55 355 1.7 2.6 0.00 1.33 1.33 99 1012.3
20260502234411 55 356 1.7 2.6 0.00 1.33 1.33 99 1012.2
20260502233908 55 286 1.7 2.6 0.00 1.33 1.33 99 1012.2
20260502233403 55 345 2.6 2.6 0.00 1.33 1.33 99 1012.3
20260502232901 55 321 1.7 2.6 0.00 1.33 1.33 99 1012.3
20260502232357 55 339 0.9 0.9 0.00 1.33 1.33 99 1011.9
20260502231854 55 318 0.9 0.9 0.00 1.33 1.33 99 1011.7
20260502231352 56 351 1.7 2.6 0.09 1.33 1.33 99 1011.8
20260502230850 55 346 0.9 0.9 0.09 1.33 1.33 99 1011.6
20260502230348 56 343 1.7 2.6 0.00 1.32 1.32 99 1011.8
20260502225844 56 6 2.6 4.3 0.00 1.32 1.32 99 1011.7
20260502225341 56 22 1.7 2.6 0.00 1.32 1.32 99 1011.8
20260502224838 56 22 0.9 0.9 0.00 1.32 1.32 99 1011.6
20260502224334 56 348 0.9 0.9 0.00 1.32 1.32 99 1011.8
20260502223831 56 0 2.6 2.6 0.00 1.32 1.32 99 1011.6
20260502223329 56 11 0.9 0.9 0.00 1.32 1.32 99 1011.9
20260502222827 56 359 2.6 2.6 0.00 1.32 1.32 99 1011.8
20260502222324 56 301 1.7 2.6 0.00 1.32 1.32 99 1011.6
20260502221819 56 18 0.9 0.9 0.00 1.32 1.32 99 1011.7
20260502221316 56 0 1.7 2.6 0.00 1.32 1.32 99 1011.5
20260502220814 57 334 1.7 2.6 0.07 1.32 1.32 99 1011.6
20260502220309 56 339 0.0 0.9 0.07 1.32 1.32 99 1011.6
20260502215806 56 353 2.6 2.6 0.00 1.31 1.31 99 1011.3